Regional Weather Roundup
Issued by NWS

Home | Current Version | Previous Version | Graphics & Text | Print | Product List | Glossary On
Versions: 1 2 3 4 5 6 7 8 9 10 11 12 13 14 15 16 17 18 19 20 21 22 23 24 25 26 27 28 29 30 31 32 33 34 35 36 37 38 39 40 41 42 43 44 45 46 47 48 49 50
000
ASUS45 KABQ 311410
RWRNM
NEW MEXICO REGIONAL WEATHER ROUNDUP
NATIONAL WEATHER SERVICE ALBUQUERQUE NM
800 AM MDT FRI JUL 31 2015

NOTE: "FAIR" MEANS FEW OR NO CLOUDS BELOW 12,000 FEET AGL WITH NO
       SIGNIFICANT WEATHER OR OBSTRUCTIONS TO VISION.

      THIS PRODUCT IS RELEASED AS TWO VERSIONS.  ONE VERSION NEAR
      THE TOP OF THE HOUR CONTAINING PRELIMINARY DATA FROM ALBUQUERQUE
      AND OTHER STATIONS.  A FINAL VERSION WITH ADDITIONAL DATA IS
      ISSUED ABOUT 10 MINUTES AFTER THE HOUR.

NMZ501-503-504-510>518-311500-
NORTHWEST PLATEAU/NORTHCENTRAL MOUNTAINS

CITY           SKY/WX    TMP DP  RH WIND       PRES   REMARKS
FARMINGTON     CLOUDY    64  60  87 E8        30.35S
LOS ALAMOS     CLOUDY    62  56  83 CALM      30.50R
SANTA FE       CLOUDY    66  57  72 SE10      30.43R
TAOS           PTSUNNY   59  48  67 CALM      30.50S
ANGEL FIRE     FOG       49  49  99 CALM      30.58S VSB 1/4

$$
NMZ402-403-502-505>509-311500-
WESTCENTRAL MOUNTAINS/SOUTHWEST MOUNTAINS

CITY           SKY/WX    TMP DP  RH WIND       PRES   REMARKS
GALLUP         MOSUNNY   64  57  78 CALM      30.40R
GRANTS         SUNNY     64  61  88 SE10      30.45R
SILVER CITY      N/A     66  61  82 N7        30.37S

$$
NMZ407-409-411-412-311500-
SOUTHERN DESERTS

CITY           SKY/WX    TMP DP  RH WIND       PRES   REMARKS
LORDSBURG      FAIR      68  61  77 SE3       30.28R
DEMING         CLOUDY    67  64  90 CALM      30.28R
LAS CRUCES     CLOUDY    68  64  89 NE8       30.29R
HOLLOMAN AFB   PTSUNNY   75  61  62 W6        30.25S
ALAMOGORDO     PTSUNNY   73  64  73 N5        30.28R
T OR C         CLOUDY    68  62  81 NW5       30.32S

$$
NMZ519>523-311500-
CENTRAL VALLEYS/CENTRAL HIGHLANDS

CITY           SKY/WX    TMP DP  RH WIND       PRES   REMARKS
ALBUQUERQUE    PTSUNNY   69  61  75 SE6       30.37R
DOUBLE EAGLE   PTSUNNY   64  61  88 NE6       30.41R
MORIARTY ARPT    N/A     64  58  82 CALM      30.44R
CLINES CORNERS NOT AVBL
BELEN          FAIR      69  60  74 CALM      30.37R
SOCORRO        CLOUDY    71  62  74 SW5       30.34F

$$
NMZ524>526-539-540-311500-
SOUTHCENTRAL MOUNTAINS

CITY           SKY/WX    TMP DP  RH WIND       PRES   REMARKS
RUIDOSO          N/A    N/A N/A N/A MISG        N/A

$$
NMZ527>531-311500-
NORTHEAST HIGHLANDS/NORTHEAST PLAINS

CITY           SKY/WX    TMP DP  RH WIND       PRES   REMARKS
LAS VEGAS      CLOUDY    60  58  92 SW7       30.47R
RATON          SUNNY     61  57  87 E3        30.43R
CLAYTON        CLOUDY    67  64  90 SE6       30.36R

$$
NMZ532>537-311500-
EASTCENTRAL PLAINS

CITY           SKY/WX    TMP DP  RH WIND       PRES   REMARKS
TUCUMCARI      CLOUDY    67  65  93 CALM      30.32R
CANNON AFB     CLOUDY    67  64  91 N9        30.31S
CLOVIS AIRPORT CLOUDY    66  63  88 N12       30.32S

$$
NMZ028-029-538-311500-
SOUTHEAST PLAINS

CITY           SKY/WX    TMP DP  RH WIND       PRES   REMARKS
ROSWELL        MOSUNNY   72  63  73 N13       30.26R
ARTESIA        SUNNY     73  66  78 N12       30.26R
CARLSBAD       SUNNY     77  64  64 NW14      30.23R
HOBBS          SUNNY     77  57  50 N9        30.26R


$$



USA.gov is the U.S. government's official web portal to all federal, state and local government web resources and services.